Change the Weather History Date:

Sunday, January 8, 2012

  Actual Average Record
Temperature  
Mean Temperature 50 °F -  
Max Temperature 59 °F 50 °F 70 °F (2005)
Min Temperature 41 °F 32 °F 8 °F (1970)
Degree Days  
Heating Degree Days 15    
Moisture  
Dew Point 45 °F    
Average Humidity 88    
Maximum Humidity 100    
Minimum Humidity 60    
Precipitation  
Precipitation 0.01 in - - ()
Sea Level Pressure  
Sea Level Pressure 30.17 in    
Wind  
Wind Speed 2 mph (NNE)    
Max Wind Speed 9 mph    
Max Gust Speed -    
Visibility 6 miles    
Events Fog , Rain    
Averages and records for this station are not official NWS values.
T = Trace of Precipitation, MM = Missing Value Source: NWS Daily Summary

Daily Weather History Graph

Daily Weather History Graph

Search for Another Location

Airport or City:

Trip Planner

Search our weather history database for the weather conditions in past years. The results will help you decide how hot, cold, wet, or windy it might be!

Date:

Astronomy

Jan. 08, 2012 Rise Set
Actual Time 7:32 AM EST 5:29 PM EST
Civil Twilight 7:04 AM EST 5:56 PM EST
Nautical Twilight 6:33 AM EST 6:28 PM EST
Astronomical Twilight 6:02 AM EST 6:58 PM EST
Moon 5:10 PM EST (1/8) 6:50 AM EST (1/8)
Length of Visible Light 10h 51m
Length of Day
9h 56m
Full, 100% of the Moon is Illuminated
Jan 8
Full
Jan 9
Full
Jan 16
Last Quarter
Jan 23
New
Jan 30
First Quarter

Hourly Weather History & Observations

Time (EST) Temp. Dew Point Humidity Pressure Visibility Wind Dir Wind Speed Gust Speed Precip Events Conditions
12:54 AM 52.0 °F 50.0 °F 93% 30.08 in 10.0 mi WSW 3.5 mph - N/A   Clear
1:54 AM 50.0 °F 48.9 °F 96% 30.09 in 10.0 mi West 3.5 mph - N/A   Clear
2:54 AM 46.0 °F 46.0 °F 100% 30.11 in 4.0 mi Calm Calm - N/A   Clear
3:10 AM 44.6 °F 44.6 °F 100% 30.12 in 1.8 mi Calm Calm - N/A   Clear
3:36 AM 42.8 °F 42.8 °F 100% 30.12 in 1.0 mi Calm Calm - N/A   Mist
3:40 AM 42.8 °F 42.8 °F 100% 30.12 in 0.5 mi Calm Calm - N/A Fog Fog
3:54 AM 43.0 °F 43.0 °F 100% 30.12 in 0.2 mi Calm Calm - N/A Fog Fog
4:18 AM 42.8 °F 42.8 °F 100% 30.13 in 0.2 mi Calm Calm - N/A Fog Fog
4:29 AM 41.0 °F 41.0 °F 100% 30.13 in 0.2 mi Calm Calm - N/A Fog Fog
4:39 AM 46.4 °F 44.6 °F 93% 30.13 in 0.2 mi Calm Calm - N/A Fog Fog
4:52 AM 42.8 °F 42.8 °F 100% 30.13 in 1.0 mi Calm Calm - N/A   Scattered Clouds
5:14 AM 44.6 °F 44.6 °F 100% 30.14 in 3.0 mi Calm Calm - N/A   Partly Cloudy
5:49 AM 42.8 °F 42.8 °F 100% 30.15 in 1.8 mi Calm Calm - N/A   Scattered Clouds
5:54 AM 43.0 °F 43.0 °F 100% 30.16 in 0.8 mi Calm Calm - N/A   Scattered Clouds
6:04 AM 44.6 °F 44.6 °F 100% 30.15 in 0.5 mi Calm Calm - N/A Fog Fog
6:54 AM 41.0 °F 41.0 °F 100% 30.17 in 0.5 mi Calm Calm - N/A Fog Fog
7:13 AM 42.8 °F 42.8 °F 100% 30.17 in 1.0 mi Calm Calm - N/A   Mist
7:35 AM 44.6 °F 44.6 °F 100% 30.18 in 2.0 mi Calm Calm - N/A   Scattered Clouds
7:52 AM 44.6 °F 44.6 °F 100% 30.19 in 3.0 mi Calm Calm - N/A   Partly Cloudy
7:54 AM 44.1 °F 44.1 °F 100% 30.19 in 3.0 mi Calm Calm - N/A   Partly Cloudy
8:54 AM 48.9 °F 48.9 °F 100% 30.21 in 3.0 mi Calm Calm - N/A   Overcast
9:54 AM 51.1 °F 51.1 °F 100% 30.22 in 4.0 mi Calm Calm - 0.00 in   Overcast
10:54 AM 54.0 °F 53.1 °F 97% 30.23 in 7.0 mi NNE 4.6 mph - 0.00 in   Overcast
11:54 AM 55.9 °F 48.9 °F 77% 30.21 in 10.0 mi Variable 4.6 mph - N/A   Overcast
12:54 PM 57.9 °F 48.0 °F 70% 30.19 in 10.0 mi ENE 5.8 mph - N/A   Overcast
1:54 PM 59.0 °F 46.9 °F 64% 30.17 in 10.0 mi Calm Calm - N/A   Overcast
2:54 PM 59.0 °F 45.0 °F 60% 30.18 in 10.0 mi NNE 6.9 mph - N/A   Overcast
3:13 PM 57.2 °F 44.6 °F 63% 30.19 in 10.0 mi North 9.2 mph - N/A   Overcast
3:54 PM 57.0 °F 44.1 °F 62% 30.19 in 10.0 mi NNE 5.8 mph - N/A   Overcast
4:04 PM 57.2 °F 44.6 °F 63% 30.19 in 10.0 mi NNE 4.6 mph - N/A   Overcast
4:54 PM 55.9 °F 45.0 °F 67% 30.20 in 10.0 mi NNE 3.5 mph - 0.00 in   Overcast
5:54 PM 53.1 °F 46.0 °F 77% 30.22 in 10.0 mi NNE 3.5 mph - 0.01 in Rain Light Rain
6:54 PM 52.0 °F 46.9 °F 83% 30.23 in 10.0 mi North 3.5 mph - 0.00 in   Overcast
7:54 PM 51.1 °F 46.9 °F 86% 30.23 in 10.0 mi North 3.5 mph - N/A   Overcast
8:41 PM 53.6 °F 44.6 °F 72% 30.23 in 10.0 mi Calm Calm - N/A   Overcast
8:54 PM 52.0 °F 44.1 °F 74% 30.23 in 10.0 mi Calm Calm - N/A   Overcast
9:03 PM 51.8 °F 44.6 °F 76% 30.23 in 10.0 mi NNE 3.5 mph - N/A   Overcast
9:54 PM 50.0 °F 46.0 °F 86% 30.23 in 10.0 mi North 4.6 mph - 0.00 in   Overcast
10:54 PM 50.0 °F 46.0 °F 86% 30.23 in 10.0 mi NNE 3.5 mph - N/A   Overcast
11:54 PM 50.0 °F 46.0 °F 86% 30.21 in 10.0 mi Calm Calm - N/A   Overcast